Spirit of St Louis, MO

3:57 PM CDT on September 21, 2017 (GMT -0500)
Spirit Of Saint Louis

Weather History for KSUS - September, 2013

Change the Weather History Date:

Sunday, September 15, 2013

  Actual Average Record
Temperature  
Mean Temperature 68 °F -  
Max Temperature 84 °F 78 °F 90 °F (1997)
Min Temperature 53 °F 53 °F 39 °F (2007)
Cooling Degree Days 2    
Growing Degree Days 18 (Base 50)    
Moisture  
Dew Point 55 °F    
Average Humidity 66    
Maximum Humidity 90    
Minimum Humidity 39    
Precipitation  
Precipitation 0.04 in - - ()
Sea Level Pressure  
Sea Level Pressure 30.04 in    
Wind  
Wind Speed 4 mph (SW)    
Max Wind Speed 9 mph    
Max Gust Speed -    
Visibility 10 miles    
Events Rain    
Averages and records for this station are not official NWS values.
T = Trace of Precipitation, MM = Missing Value Source: NWS Daily Summary

Daily Weather History Graph

Daily Weather History Graph

Search for Another Location

Airport or City:

Trip Planner

Search our weather history database for the weather conditions in past years. The results will help you decide how hot, cold, wet, or windy it might be!

Date:

Astronomy

Sep. 15, 2013 Rise Set
Actual Time 6:44 AM CDT 7:10 PM CDT
Civil Twilight 6:17 AM CDT 7:36 PM CDT
Nautical Twilight 5:46 AM CDT 8:08 PM CDT
Astronomical Twilight 5:14 AM CDT 8:40 PM CDT
Moon 4:36 PM CDT (9/15) 2:24 AM CDT (9/15)
Length of Visible Light 13h 19m
Length of Day
12h 26m
Waxing Gibbous, 82% of the Moon is Illuminated
Sep 15
Waxing Gibbous
Sep 19
Full
Sep 26
Last Quarter
Oct 4
New
Oct 11
First Quarter

Hourly Weather History & Observations

Time (CDT) Temp. Heat Index Dew Point Humidity Pressure Visibility Wind Dir Wind Speed Gust Speed Precip Events Conditions
12:54 AM 55.0 °F - 46.0 °F 72% 30.04 in 10.0 mi SSE 3.5 mph - N/A   Clear
1:54 AM 60.1 °F - 44.1 °F 55% 30.02 in 10.0 mi South 4.6 mph - N/A   Clear
2:54 AM 57.9 °F - 44.1 °F 60% 30.03 in 10.0 mi SSE 6.9 mph - N/A   Clear
3:54 AM 57.9 °F - 45.0 °F 62% 30.02 in 10.0 mi SSW 4.6 mph - N/A   Clear
4:54 AM 55.9 °F - 45.0 °F 67% 30.03 in 10.0 mi Calm Calm - N/A   Clear
5:54 AM 54.0 °F - 48.0 °F 80% 30.04 in 10.0 mi Calm Calm - N/A   Mostly Cloudy
6:54 AM 53.1 °F - 46.0 °F 77% 30.05 in 10.0 mi NNW 3.5 mph - N/A   Mostly Cloudy
7:54 AM 59.0 °F - 48.0 °F 67% 30.06 in 10.0 mi Calm Calm - N/A   Mostly Cloudy
8:54 AM 64.9 °F - 48.9 °F 56% 30.04 in 10.0 mi SW 5.8 mph - N/A   Mostly Cloudy
9:54 AM 69.1 °F - 48.9 °F 49% 30.05 in 10.0 mi WSW 9.2 mph - N/A   Mostly Cloudy
10:54 AM 73.0 °F - 50.0 °F 44% 30.04 in 10.0 mi SW 6.9 mph - N/A   Mostly Cloudy
11:54 AM 78.1 °F - 51.1 °F 39% 30.03 in 10.0 mi SSW 9.2 mph - N/A   Mostly Cloudy
12:54 PM 78.1 °F - 52.0 °F 40% 30.02 in 10.0 mi WSW 5.8 mph - N/A   Overcast
1:54 PM 70.0 °F - 64.0 °F 81% 30.01 in 10.0 mi Calm Calm - 0.03 in   Overcast
2:54 PM 79.0 °F - 57.0 °F 47% 30.00 in 10.0 mi SW 6.9 mph - N/A   Overcast
3:54 PM 82.0 °F 81.6 °F 55.9 °F 41% 29.99 in 10.0 mi WSW 8.1 mph - N/A   Clear
4:54 PM 80.1 °F 80.9 °F 60.1 °F 50% 29.97 in 10.0 mi South 4.6 mph - N/A   Mostly Cloudy
5:54 PM 75.9 °F - 64.0 °F 67% 29.98 in 10.0 mi Calm Calm - N/A   Clear
6:54 PM 72.0 °F - 66.0 °F 81% 30.01 in 10.0 mi SW 4.6 mph - 0.00 in Rain Light Rain
7:54 PM 71.1 °F - 64.9 °F 81% 30.02 in 10.0 mi SW 4.6 mph - 0.00 in   Mostly Cloudy
8:54 PM 73.0 °F - 63.0 °F 71% 30.05 in 10.0 mi NNW 5.8 mph - N/A   Mostly Cloudy
9:54 PM 71.1 °F - 63.0 °F 75% 30.05 in 9.0 mi NNE 5.8 mph - 0.01 in Rain Light Rain
10:54 PM 70.0 °F - 64.9 °F 84% 30.07 in 10.0 mi Calm Calm - 0.00 in   Mostly Cloudy
11:30 PM 68.0 °F - 64.4 °F 88% 30.11 in 9.0 mi NNW 5.8 mph - 0.00 in   Mostly Cloudy
11:46 PM 68.0 °F - 64.4 °F 88% 30.11 in 9.0 mi North 4.6 mph - 0.00 in   Overcast
11:54 PM 68.0 °F - 64.9 °F 90% 30.09 in 9.0 mi North 4.6 mph - 0.00 in   Overcast